Location: Newark
(40.3500°N, 15.2333°E)
Time: 02:05:23
(UTC+00:00)

NOAA 19 - Pass Details

Date: 25 February 2020
Orbit: 842 x 860 km, 99.2° (Epoch: 06 April)

Event Time Altitude Azimuth Distance (km) Brightness Sun altitude
Rises 04:45:56 0° 16° (NNE) 3,422 8.5 -11.0°
Reaches altitude 10° 04:48:20 10° 19° (NNE) 2,485 7.8 -10.5°
Maximum altitude 04:53:50 70° 103° (ESE) 907 5.6 -9.5°
Drops below altitude 10° 04:59:20 10° 187° (S) 2,481 7.6 -8.4°
Sets 05:01:42 0° 189° (S) 3,415 8.3 -8.0°
